Location: Luxembourg
(49.6117°N, 6.1300°E)
Time: 10:39:02
(UTC+01:00)

Tiangong 1 - Visible Passes

Search period start: 19 January 2018 00:00
Search period end: 29 January 2018 00:00
Orbit: 263 x 288 km, 42.8° (Epoch: 18 January)

Date Brightness Start Highest point End Pass type
(mag) Time Alt. Az. Time Alt. Az. Time Alt. Az.
19 Jan 3.0 17:57:46 10° SW 17:59:28 16° S 18:01:09 10° SE visible
19 Jan 3.8 19:31:52 10° SW 19:32:13 11° SW 19:32:13 11° SW visible
20 Jan 3.0 17:57:14 10° SW 17:58:59 17° S 18:00:44 10° SE visible
20 Jan 3.8 19:31:55 10° SW 19:32:02 10° SSW 19:32:02 10° SSW visible
21 Jan 3.1 17:56:41 10° SW 17:58:23 16° S 18:00:04 10° SE visible
22 Jan 3.3 17:56:07 10° SW 17:57:38 15° S 17:59:08 10° SSE visible
23 Jan 3.5 17:55:38 10° SW 17:56:45 12° SSW 17:57:51 10° S visible
